Theta_e
355 356 355 355 354 353 354 355 354 353 353 354 352 351 350 350 350 349 348 349 350 350 349 348 348 346 344 343 343 343 343 343 342 341 337 339 338 338 338 338 340 340 341
357 357 355 353 354 353 354 355 353 349 353 354 353 345 351 350 351 350 351 351 351 350 350 350 348 345 344 345 344 344 346 347 344 342 341 340 340 336 335 337 339 337 339
357 355 351 353 350 344 350 355 356 355 350 344 351 353 354 353 353 351 350 351 351 351 351 349 346 345 345 344 344 344 344 344 346 346 344 341 340 339 337 336 338 338 338
354 352 353 354 349 345 354 353 353 354 349 353 354 356 353 352 352 353 352 352 352 351 350 348 346 346 343 342 343 341 340 342 342 345 345 344 342 342 342 336 337 337 337
357 355 356 354 355 351 353 354 354 349 354 355 353 354 354 352 351 353 352 351 351 351 349 347 347 346 346 346 342 339 338 339 340 342 342 343 343 343 344 338 336 337 336
356 354 351 355 354 353 356 355 355 355 356 356 354 352 353 353 353 351 351 350 352 351 349 348 348 346 345 345 343 343 340 340 339 336 336 337 342 343 345 342 337 337 336
352 351 354 356 356 357 354 356 353 353 354 358 355 352 353 354 354 354 352 350 352 351 349 350 347 344 342 345 343 343 342 341 340 337 333 334 341 344 344 344 338 336 336
355 357 356 354 351 355 344 341 340 347 349 356 357 350 348 352 353 354 353 352 352 350 349 348 345 342 340 343 342 343 343 342 338 334 333 333 337 343 345 345 340 335 337
355 357 356 354 357 356 350 349 341 348 351 351 357 355 349 349 348 353 353 352 351 349 347 345 345 342 340 340 339 340 341 339 335 333 331 333 336 342 344 344 342 335 336
356 355 356 354 359 357 348 342 346 349 350 352 357 356 355 353 348 348 353 351 350 348 347 345 344 342 341 341 340 340 336 334 332 333 333 335 335 342 344 344 342 336 337
357 355 355 354 355 356 356 354 353 353 352 354 357 357 356 352 351 345 338 351 349 347 346 344 342 341 341 339 337 335 333 333 333 336 336 336 335 338 345 345 343 338 337
356 355 359 357 357 356 358 357 357 358 357 358 357 357 357 355 352 344 339 345 348 348 346 342 341 340 339 336 334 334 333 333 334 336 335 335 337 336 340 345 343 339 338
357 354 354 358 356 360 360 360 361 360 359 359 360 358 357 358 358 354 350 347 344 347 345 343 341 339 337 335 335 334 332 333 334 334 335 334 333 336 338 341 343 340 340
353 352 352 357 358 358 359 360 359 362 361 361 361 360 358 359 357 358 354 350 345 344 345 345 341 340 338 337 334 333 332 331 332 333 334 334 333 332 333 337 340 343 341
352 361 358 358 358 360 358 356 356 357 359 361 363 361 359 360 359 357 357 353 348 347 344 344 342 340 336 335 333 333 332 331 331 330 329 329 329 331 332 332 334 338 339
360 360 359 359 360 361 361 361 361 361 362 362 362 360 358 360 359 358 357 353 348 348 344 345 343 340 336 334 333 332 332 331 330 329 329 328 328 329 331 332 338 337 334
361 360 361 362 361 361 361 362 362 363 364 363 362 362 362 361 360 360 355 352 349 341 346 346 343 340 336 334 333 332 331 332 330 328 329 327 326 326 330 331 338 338 339
363 362 362 361 359 355 361 362 363 364 364 365 363 363 362 362 362 362 358 355 351 345 347 344 343 339 336 333 331 330 331 331 329 328 328 327 325 325 327 330 332 339 340
355 355 356 350 345 344 351 351 354 365 366 365 364 365 364 365 364 362 361 359 354 350 350 347 343 339 337 334 331 330 331 331 330 329 328 328 326 325 326 328 331 331 336
347 344 344 339 337 337 340 338 342 344 359 362 361 362 364 363 361 360 361 359 358 353 351 347 343 339 336 334 332 330 331 331 331 330 329 328 327 326 324 326 329 332 333
336 338 336 336 335 336 332 331 342 337 337 331 332 337 347 358 363 364 362 361 359 354 350 348 343 338 336 334 333 331 331 331 331 331 330 328 326 325 324 326 327 331 334
339 339 341 341 337 329 335 341 339 341 338 336 329 324 322 322 330 348 359 362 361 358 351 347 345 340 337 336 335 333 332 330 328 331 330 328 328 328 329 328 327 328 332
330 327 323 321 318 319 320 329 341 341 340 339 333 330 330 324 331 335 342 353 360 358 356 356 348 346 344 342 339 333 333 331 331 329 330 327 328 329 329 328 327 328 329
330 331 333 332 332 334 333 332 328 323 324 326 329 339 336 332 334 333 337 348 358 358 356 354 352 350 346 344 339 335 332 331 330 330 329 329 330 329 329 328 327 325 325
329 327 325 326 327 326 326 327 328 330 331 331 330 331 334 336 336 342 343 338 342 350 357 353 350 349 347 344 341 333 331 329 327 329 329 329 329 329 329 328 327 325 326
326 326 327 327 328 328 328 328 329 331 331 331 331 331 331 335 336 334 335 340 343 346 352 353 348 345 344 341 338 335 333 329 327 326 329 330 329 329 328 327 325 326 326
Wind_Speed
7 7 6 7 7 4 4 5 3 7 9 14 12 11 15 16 14 15 16 14 17 15 17 16 17 18 21 22 23 22 24 24 25 24 24 20 21 18 16 16 16 18 18
6 7 6 7 6 7 5 6 2 4 4 10 10 10 13 16 18 14 13 12 10 16 15 14 11 11 12 15 19 22 24 25 25 24 23 23 25 28 26 18 19 20 20
8 7 8 8 9 6 8 9 8 7 6 5 6 9 8 11 14 13 14 12 12 13 11 6 7 5 6 9 10 12 17 21 23 23 22 23 26 28 27 28 23 21 22
7 7 7 8 7 3 7 3 4 3 3 8 11 13 5 6 17 16 17 16 12 10 7 7 5 4 5 6 7 9 11 11 13 17 20 22 25 30 28 35 28 24 22
9 10 10 8 6 7 4 3 5 6 8 9 12 15 4 11 19 17 12 12 11 8 4 3 3 5 5 5 4 3 3 4 4 7 12 18 24 28 34 33 33 29 24
9 13 12 9 6 7 3 5 7 5 10 12 13 13 13 17 20 17 10 10 10 8 3 3 4 5 5 5 3 2 3 4 6 9 12 15 18 26 35 34 37 33 26
9 5 7 5 8 2 5 5 2 5 9 11 10 13 13 12 16 15 6 10 10 8 6 4 4 4 5 5 3 4 5 5 9 13 13 14 16 19 31 40 39 36 31
9 7 3 3 2 1 2 4 4 2 6 10 4 3 2 2 7 12 9 10 10 9 7 4 4 4 4 2 4 6 7 8 12 15 15 14 15 16 25 39 42 43 36
12 9 7 9 7 6 4 5 6 5 7 9 8 2 2 1 3 4 9 11 12 11 8 6 4 3 3 4 7 6 7 10 15 17 17 14 13 13 18 33 46 48 41
13 11 10 11 9 6 7 5 3 4 5 10 6 6 2 3 2 2 4 8 11 11 9 5 5 5 6 6 6 6 9 14 17 14 13 12 10 10 16 23 39 44 44
18 14 13 14 14 10 8 5 6 5 5 9 7 3 1 0 1 2 2 4 11 11 9 7 8 7 7 6 6 7 12 15 12 9 8 8 8 7 16 25 31 46 44
19 19 16 17 17 17 13 8 6 6 5 7 9 5 5 3 2 3 3 6 8 10 11 9 9 7 6 6 7 8 12 11 9 8 8 8 6 8 10 23 32 40 41
8 7 11 18 19 16 15 10 9 10 8 9 8 7 9 8 7 8 7 4 4 10 11 13 11 7 8 7 7 8 10 9 7 7 8 8 7 6 8 15 28 37 40
8 9 11 5 18 15 14 13 12 12 12 12 11 12 12 10 9 8 6 5 3 5 10 9 11 9 9 8 7 7 6 7 6 6 7 7 7 7 4 8 17 35 45
7 1 2 6 11 13 13 14 14 14 14 13 13 14 15 13 12 10 10 12 4 4 4 10 9 11 7 8 6 5 5 6 7 7 7 7 8 8 6 5 13 29 32
4 7 7 6 8 10 12 14 15 14 14 13 10 10 12 15 15 14 12 11 12 6 3 10 13 10 9 9 6 4 4 4 6 7 7 6 8 10 9 7 6 16 16
7 8 10 12 14 17 18 18 18 16 16 16 15 13 10 11 16 16 12 15 13 9 6 5 13 13 10 11 9 8 5 5 6 7 6 6 7 9 9 8 5 7 22
4 2 3 7 10 18 21 21 19 18 16 16 16 14 12 11 13 15 19 18 18 18 10 10 14 15 14 12 11 9 7 6 5 6 5 5 6 7 9 8 6 1 9
2 3 5 7 16 23 26 30 33 23 18 14 15 14 13 12 13 14 18 22 21 19 17 13 13 15 15 13 11 12 10 8 7 6 5 5 6 6 7 7 4 1 7
3 4 2 4 10 18 20 26 50 34 14 9 14 11 13 14 14 15 17 20 21 22 21 19 13 14 18 14 14 16 14 14 10 10 8 6 6 7 4 5 4 3 6
1 6 5 9 8 0 13 6 18 25 21 19 14 13 14 15 15 16 20 23 22 26 25 23 18 13 16 13 21 20 19 14 12 13 11 6 5 6 7 2 3 2 7
5 6 8 9 13 15 14 17 20 21 18 21 25 22 19 19 17 16 17 21 24 28 31 22 18 16 26 25 26 24 20 12 4 12 12 9 7 6 7 1 2 3 5
7 7 10 12 14 15 16 20 21 19 21 24 28 26 25 22 18 20 23 22 24 25 30 30 25 31 26 30 29 24 24 18 12 9 16 8 9 8 6 2 4 5 6
11 12 13 15 16 17 18 21 25 29 28 28 25 23 24 24 21 23 22 22 24 25 26 31 29 28 27 24 28 32 28 24 15 11 16 6 10 9 9 5 6 6 6
18 21 22 20 19 20 20 22 22 25 26 27 25 23 21 20 21 16 17 21 24 28 29 25 26 25 23 19 21 30 22 19 6 9 21 7 8 9 9 8 9 9 7
20 21 22 20 19 21 21 21 25 28 26 26 27 26 22 19 18 18 20 19 17 24 25 26 24 24 21 18 22 28 29 25 11 6 16 14 11 10 3 7 9 10 9
Wind_Direction
264 278 275 266 281 312 301 314 295 233 230 231 290 296 283 264 267 266 264 263 249 247 244 262 264 262 252 252 252 248 247 247 244 238 234 228 212 204 208 206 202 202 203
254 273 287 299 287 295 324 352 276 267 283 253 291 296 277 270 254 267 263 253 224 228 242 253 257 256 258 252 248 248 246 245 244 240 236 234 219 220 223 217 209 202 203
246 270 289 301 301 323 325 322 280 282 306 305 347 354 300 264 226 233 234 216 219 216 227 252 256 267 254 254 256 258 260 259 257 250 244 236 231 230 228 215 215 208 200
252 268 274 313 304 326 334 302 337 259 11 17 4 12 5 216 189 202 194 199 202 202 211 220 240 299 251 239 242 270 271 266 269 258 248 240 232 235 233 219 218 213 205
254 281 281 299 308 313 354 290 297 289 357 14 3 8 175 189 182 183 174 195 198 200 207 232 259 291 266 232 254 300 315 310 296 279 274 259 246 238 229 219 216 214 204
252 270 279 304 317 318 353 271 270 359 355 4 14 29 159 173 177 175 181 185 201 207 204 226 273 283 283 248 257 267 317 318 316 309 288 277 261 243 227 220 209 210 201
240 240 268 314 359 329 227 265 246 34 17 11 22 65 134 184 178 185 201 189 202 212 198 238 278 299 306 254 266 278 297 308 313 314 302 288 280 251 227 217 205 205 199
236 237 245 220 327 145 131 356 306 54 21 15 357 73 33 186 205 203 200 204 202 201 206 235 259 299 337 281 301 287 277 299 311 315 305 290 284 263 231 218 205 201 201
238 231 230 223 221 229 293 340 101 66 3 354 346 102 60 250 328 193 200 204 197 201 207 214 232 260 269 296 314 308 290 302 312 312 304 291 287 275 230 212 204 199 203
225 227 236 228 228 241 302 335 338 5 324 328 345 47 175 236 167 333 165 207 204 214 226 235 241 236 254 282 298 293 311 314 314 307 298 292 282 275 216 215 195 195 200
224 233 231 232 232 241 268 294 321 291 278 286 295 331 282 305 78 131 261 228 220 225 227 225 233 242 234 258 281 297 316 317 318 319 317 309 278 265 221 205 209 193 200
227 238 246 241 239 240 249 255 263 260 279 273 271 287 305 267 261 214 227 245 232 229 227 227 234 237 243 261 291 299 317 316 320 325 334 334 314 260 246 214 201 193 196
237 249 299 241 230 236 238 249 253 248 254 246 271 274 275 280 266 242 225 238 220 229 222 228 230 234 244 256 263 296 321 325 316 315 317 327 342 306 262 230 207 199 197
256 299 302 264 222 230 238 246 251 247 254 252 254 254 264 270 259 260 218 193 238 224 223 238 218 231 248 250 244 290 320 328 326 317 314 311 314 316 320 242 225 217 201
280 345 322 248 231 241 242 248 254 256 255 259 260 254 261 269 264 272 247 242 138 203 229 220 220 222 232 210 230 280 325 328 316 314 315 315 310 308 314 303 248 225 240
269 293 307 291 268 262 264 262 263 261 257 255 240 255 264 260 245 251 253 223 237 203 219 208 218 218 211 212 220 254 301 328 338 318 310 312 310 307 311 332 296 228 206
294 307 317 320 306 299 293 283 276 267 259 257 255 252 258 258 249 249 238 237 252 228 223 252 224 217 211 205 214 241 259 294 323 322 310 317 320 318 317 340 351 239 219
105 71 323 321 327 348 316 292 284 278 271 269 273 268 257 254 250 244 238 240 255 266 228 217 215 211 219 222 230 232 235 258 297 319 309 307 322 326 331 344 8 238 183
72 352 310 15 23 19 16 357 326 279 267 267 269 270 276 271 262 250 242 243 252 255 241 219 212 211 221 217 219 224 225 235 254 283 299 293 289 319 356 345 335 356 226
326 348 333 334 358 9 11 352 317 326 302 276 282 281 285 279 273 269 257 252 252 242 233 227 215 203 213 221 215 222 221 228 237 259 277 286 277 281 308 346 325 328 204
194 354 19 332 307 176 28 4 298 317 331 344 335 314 298 287 281 277 273 267 253 237 231 227 222 206 205 203 210 219 229 228 234 246 264 272 246 273 269 353 320 262 185
342 37 353 356 340 352 343 320 307 306 318 321 328 319 313 306 294 285 281 278 271 246 234 218 218 216 218 216 225 218 220 208 231 236 238 243 228 240 265 314 286 212 218
357 355 333 342 342 334 320 313 317 320 312 307 311 306 309 307 300 299 294 287 279 267 258 252 231 232 231 229 226 218 215 216 208 206 204 219 216 235 241 246 274 202 205
358 358 3 358 348 330 322 309 304 305 304 303 306 299 299 302 297 303 302 303 286 269 254 254 257 261 254 248 236 234 218 216 220 212 198 202 206 226 226 230 235 224 229
353 347 346 340 332 327 324 318 316 314 312 309 308 305 300 297 297 301 303 307 300 289 266 256 252 253 249 243 238 223 203 200 194 202 199 213 200 214 226 208 218 224 225
344 342 337 337 336 331 332 331 331 328 325 324 321 314 307 289 284 297 306 314 302 292 291 267 253 244 241 235 231 224 203 185 172 182 206 202 190 188 203 229 212 215 221